TimeMDT,TemperatureF,Dew PointF,Humidity,Sea Level PressureIn,VisibilityMPH,Wind Direction,Wind SpeedMPH,Gust SpeedMPH,PrecipitationIn,Events,Conditions,WindDirDegrees,DateUTC
12:53 AM,57.9,50.0,75,29.74,10.0,East,3.5,-,N/A,,Clear,90,2013-05-17 06:53:00
1:53 AM,55.0,50.0,83,29.74,10.0,East,6.9,-,N/A,,Clear,80,2013-05-17 07:53:00
2:53 AM,55.0,50.0,83,29.73,10.0,NNE,6.9,-,N/A,,Clear,30,2013-05-17 08:53:00
3:53 AM,53.1,48.9,86,29.76,10.0,ESE,3.5,-,N/A,,Clear,120,2013-05-17 09:53:00
4:53 AM,53.1,48.0,83,29.75,10.0,ESE,8.1,-,N/A,,Clear,120,2013-05-17 10:53:00
5:53 AM,51.8,48.2,88,29.85,10.0,East,6.9,-,N/A,,Clear,80,2013-05-17 11:53:00
6:53 AM,57.0,50.0,77,29.75,10.0,East,9.2,-,N/A,,Clear,90,2013-05-17 12:53:00
7:53 AM,64.0,50.0,60,29.75,10.0,ESE,5.8,-,N/A,,Clear,110,2013-05-17 13:53:00
8:53 AM,68.0,51.1,55,29.75,10.0,Calm,Calm,-,N/A,,Clear,0,2013-05-17 14:53:00
9:53 AM,71.1,50.0,47,29.72,10.0,Calm,Calm,-,N/A,,Clear,0,2013-05-17 15:53:00
10:53 AM,75.9,51.1,42,29.71,10.0,SE,11.5,-,N/A,,Clear,130,2013-05-17 16:53:00
11:53 AM,82.0,54.0,38,29.68,10.0,SE,10.4,-,N/A,,Clear,140,2013-05-17 17:53:00
12:53 PM,84.0,50.0,31,29.66,10.0,South,11.5,-,N/A,,Clear,170,2013-05-17 18:53:00
1:33 PM,84.2,51.8,33,29.77,10.0,SE,8.1,-,0.00,Thunderstorm,Thunderstorm,140,2013-05-17 19:33:00
1:53 PM,86.0,48.9,28,29.62,10.0,SE,8.1,-,0.00,Thunderstorm,Partly Cloudy,130,2013-05-17 19:53:00
2:18 PM,91.4,42.8,18,29.74,10.0,SSE,17.3,21.9,N/A,Thunderstorm,Scattered Clouds,160,2013-05-17 20:18:00
2:45 PM,89.6,37.4,16,29.74,10.0,South,13.8,25.3,N/A,,Scattered Clouds,170,2013-05-17 20:45:00
2:53 PM,89.1,41.0,19,29.60,10.0,South,18.4,25.3,N/A,,Scattered Clouds,180,2013-05-17 20:53:00
3:53 PM,91.0,28.9,11,29.55,10.0,SW,19.6,27.6,N/A,,Clear,230,2013-05-17 21:53:00
4:53 PM,91.9,26.1,9,29.54,10.0,WSW,17.3,23.0,N/A,,Clear,240,2013-05-17 22:53:00
5:53 PM,90.0,27.0,10,29.54,10.0,WSW,15.0,23.0,N/A,,Clear,240,2013-05-17 23:53:00
6:53 PM,84.9,27.0,12,29.55,10.0,SW,10.4,-,N/A,,Clear,230,2013-05-18 00:53:00
7:53 PM,80.1,30.9,17,29.56,10.0,SSW,5.8,-,N/A,,Clear,200,2013-05-18 01:53:00
8:53 PM,72.0,48.0,43,29.58,10.0,NE,10.4,17.3,N/A,,Clear,40,2013-05-18 02:53:00
9:53 PM,78.1,42.1,28,29.60,10.0,SSE,18.4,23.0,N/A,,Partly Cloudy,160,2013-05-18 03:53:00
10:06 PM,78.8,46.4,32,29.74,10.0,South,15.0,20.7,0.00,Rain,Light Rain,170,2013-05-18 04:06:00
10:26 PM,77.0,51.8,41,29.73,10.0,South,20.7,27.6,0.00,Thunderstorm,Scattered Clouds,170,2013-05-18 04:26:00
10:41 PM,77.0,53.6,44,29.73,10.0,SSW,16.1,27.6,0.00,,Scattered Clouds,200,2013-05-18 04:41:00
10:53 PM,75.9,55.9,50,29.59,10.0,South,17.3,27.6,0.00,Thunderstorm,Partly Cloudy,190,2013-05-18 04:53:00
11:21 PM,77.0,55.4,47,29.77,10.0,South,15.0,27.6,0.00,Rain,Light Rain,190,2013-05-18 05:21:00
11:53 PM,72.0,57.0,59,29.62,10.0,South,6.9,-,0.00,,Partly Cloudy,170,2013-05-18 05:53:00